Location: Astronomy Club of Akron Observatory
(40.9700°N, 81.5606°W)
Time: 05:53:17
(UTC-05:00)

Hubble Space Telescope - Visible Passes

Search period start: 18 February 2018 00:00
Search period end: 28 February 2018 00:00
Orbit: 537 x 541 km, 28.5° (Epoch: 17 February)

Date Brightness Start Highest point End Pass type
(mag) Time Alt. Az. Time Alt. Az. Time Alt. Az.
20 Feb 3.5 05:43:49 10° S 05:44:17 10° SSE 05:44:46 10° SSE visible
21 Feb 3.3 05:32:29 10° S 05:33:52 11° S 05:35:16 10° SSE visible
22 Feb 3.2 05:22:37 12° S 05:23:28 13° S 05:25:16 10° SE visible
23 Feb 3.1 05:12:57 13° S 05:13:03 13° S 05:15:07 10° SE visible
24 Feb 3.1 05:03:15 14° SSE 05:03:15 14° SSE 05:04:51 10° SE visible
24 Feb 3.2 06:41:23 10° SW 06:43:05 12° S 06:44:48 10° SSE visible
25 Feb 3.3 04:53:33 13° SSE 04:53:33 13° SSE 04:54:31 10° SE visible
25 Feb 3.2 06:31:27 10° SSW 06:32:41 11° SSW 06:33:54 10° S visible
26 Feb 3.5 04:43:51 11° SSE 04:43:51 11° SSE 04:44:06 10° SSE visible
